TimeEDT,TemperatureF,Dew PointF,Humidity,Sea Level PressureIn,VisibilityMPH,Wind Direction,Wind SpeedMPH,Gust SpeedMPH,PrecipitationIn,Events,Conditions,WindDirDegrees,DateUTC
12:15 AM,80.1,76.1,88,30.19,10.0,SSW,3.5,-,N/A,,Clear,210,2013-07-17 04:15:00
12:35 AM,79.7,76.1,89,30.20,10.0,Calm,Calm,-,N/A,,Clear,0,2013-07-17 04:35:00
12:55 AM,78.8,76.3,92,30.20,10.0,Calm,Calm,-,N/A,,Clear,0,2013-07-17 04:55:00
1:15 AM,79.2,69.1,71,30.22,10.0,North,18.4,24.2,N/A,,Scattered Clouds,10,2013-07-17 05:15:00
1:35 AM,77.2,65.5,67,30.21,10.0,NNE,11.5,20.7,N/A,,Scattered Clouds,20,2013-07-17 05:35:00
1:55 AM,76.3,64.4,67,30.20,10.0,NNE,6.9,16.1,N/A,,Clear,20,2013-07-17 05:55:00
2:15 AM,75.4,64.9,70,30.19,10.0,North,4.6,-,N/A,,Clear,350,2013-07-17 06:15:00
2:35 AM,75.2,66.4,74,30.20,10.0,Calm,Calm,-,N/A,,Clear,0,2013-07-17 06:35:00
2:55 AM,74.3,67.1,78,30.18,10.0,SSW,4.6,-,N/A,,Clear,210,2013-07-17 06:55:00
3:15 AM,73.8,67.3,80,30.18,10.0,SW,4.6,-,N/A,,Clear,220,2013-07-17 07:15:00
3:35 AM,75.0,66.7,75,30.19,10.0,SW,3.5,-,N/A,,Clear,220,2013-07-17 07:35:00
3:55 AM,74.5,67.5,79,30.19,10.0,Calm,Calm,-,N/A,,Scattered Clouds,0,2013-07-17 07:55:00
4:15 AM,73.9,68.0,82,30.18,10.0,Calm,Calm,-,N/A,,Scattered Clouds,0,2013-07-17 08:15:00
4:35 AM,74.3,67.1,78,30.18,10.0,Calm,Calm,-,N/A,,Clear,0,2013-07-17 08:35:00
4:55 AM,72.7,68.2,86,30.18,10.0,Calm,Calm,-,N/A,,Clear,0,2013-07-17 08:55:00
5:15 AM,72.0,68.2,88,30.18,10.0,NNW,3.5,-,N/A,,Clear,330,2013-07-17 09:15:00
5:35 AM,72.0,68.0,87,30.18,10.0,Calm,Calm,-,N/A,,Clear,0,2013-07-17 09:35:00
5:55 AM,71.8,68.4,89,30.19,10.0,Calm,Calm,-,N/A,,Clear,0,2013-07-17 09:55:00
6:15 AM,72.0,68.5,89,30.19,10.0,Calm,Calm,-,N/A,,Clear,0,2013-07-17 10:15:00
6:35 AM,72.9,69.1,88,30.21,10.0,South,3.5,-,N/A,,Scattered Clouds,180,2013-07-17 10:35:00
6:55 AM,73.4,69.6,88,30.21,10.0,Calm,Calm,-,N/A,,Mostly Cloudy,0,2013-07-17 10:55:00
6:56 AM,73.4,69.8,88,30.21,10.0,Calm,Calm,-,N/A,,Mostly Cloudy,0,2013-07-17 10:56:00
7:56 AM,75.2,69.8,83,30.22,10.0,Calm,Calm,-,N/A,,Scattered Clouds,0,2013-07-17 11:56:00
8:56 AM,78.8,71.6,78,30.23,5.0,NW,3.5,-,N/A,,Haze,310,2013-07-17 12:56:00
9:56 AM,84.2,73.4,70,30.22,5.0,NNW,4.6,-,N/A,,Haze,340,2013-07-17 13:56:00
10:56 AM,86.0,73.4,66,30.21,5.0,North,4.6,-,N/A,,Haze,360,2013-07-17 14:56:00
11:56 AM,89.6,71.6,55,30.21,7.0,NNE,4.6,-,N/A,,Clear,20,2013-07-17 15:56:00
12:56 PM,89.6,69.8,52,30.19,7.0,NNE,6.9,-,N/A,,Clear,20,2013-07-17 16:56:00
1:56 PM,91.4,71.6,52,30.19,10.0,North,6.9,-,N/A,,Scattered Clouds,10,2013-07-17 17:56:00
2:56 PM,91.4,71.6,52,30.16,10.0,Calm,Calm,-,N/A,,Scattered Clouds,0,2013-07-17 18:56:00
3:56 PM,89.6,71.6,55,30.15,10.0,NNE,4.6,-,N/A,,Scattered Clouds,30,2013-07-17 19:56:00
4:56 PM,91.4,71.6,52,30.12,10.0,NNE,5.8,-,N/A,,Clear,30,2013-07-17 20:56:00
5:56 PM,86.0,75.2,70,30.11,10.0,Calm,Calm,-,N/A,,Scattered Clouds,0,2013-07-17 21:56:00
6:56 PM,80.6,73.4,79,30.12,10.0,North,4.6,-,N/A,Rain,Light Rain,360,2013-07-17 22:56:00
7:56 PM,78.8,75.2,89,30.14,7.0,Calm,Calm,-,N/A,,Scattered Clouds,0,2013-07-17 23:56:00
8:56 PM,78.8,75.2,89,30.14,7.0,Calm,Calm,-,N/A,,Clear,0,2013-07-18 00:56:00
9:15 PM,77.9,75.7,93,30.15,7.0,Calm,Calm,-,N/A,,Clear,0,2013-07-18 01:15:00
9:35 PM,77.4,75.4,94,30.15,7.0,Calm,Calm,-,N/A,,Clear,0,2013-07-18 01:35:00
9:55 PM,77.2,75.4,94,30.15,5.0,Calm,Calm,-,N/A,,Clear,0,2013-07-18 01:55:00
9:56 PM,78.8,75.2,89,30.15,5.0,Calm,Calm,-,N/A,,Clear,0,2013-07-18 01:56:00
10:15 PM,77.4,75.6,94,30.16,7.0,Calm,Calm,-,N/A,,Clear,0,2013-07-18 02:15:00
10:35 PM,77.9,74.7,90,30.16,10.0,Calm,Calm,-,N/A,,Clear,0,2013-07-18 02:35:00
10:55 PM,76.5,74.7,94,30.16,5.0,Calm,Calm,-,N/A,,Clear,0,2013-07-18 02:55:00
11:15 PM,77.0,75.2,94,30.16,7.0,SSW,3.5,-,N/A,,Clear,210,2013-07-18 03:15:00
11:35 PM,77.0,75.2,94,30.15,7.0,Calm,Calm,-,N/A,,Clear,0,2013-07-18 03:35:00
11:55 PM,77.0,75.2,94,30.15,7.0,SW,3.5,-,N/A,,Clear,230,2013-07-18 03:55:00